Location: Beekmeers
(50.8953°N, 3.6968°E)
Time: 12:38:40
(UTC+00:00)

SENTINEL 1B - Pass Details

Date: 18 October 2025
Orbit: 561 x 585 km, 98.1° (Epoch: 16 November)

Event Time Altitude Azimuth Distance (km) Brightness Sun altitude
Exits shadow 18:03:30 11° 46° (NE) 1,858 7.4 -12.9°
Drops below altitude 10° 18:04:12 10° 36° (NE) 1,922 7.5 -13.0°
Sets 18:07:53 0° 2° (N) 2,824 8.7 -13.6°
